Location: Newark
(36.1358°N, 115.1208°W)
Time: 10:43:48
(UTC+00:00)

ISS - Pass Details

Date: 18 January 2021
Orbit: 417 x 422 km, 51.6° (Epoch: 28 February)

Event Time Altitude Azimuth Distance (km) Brightness Sun altitude
Rises 02:04:51 0° 217° (SW) 2,354 0.9 -14.6°
Reaches altitude 10° 02:06:58 10° 212° (SSW) 1,495 -0.3 -15.1°
Maximum altitude 02:10:14 52° 135° (SE) 527 -3.5 -15.7°
Enters shadow 02:11:10 38° 83° (E) 659 -3.3 -15.9°
